Regional Weather Roundup
Issued by NWS

Home | Current Version | Previous Version | Graphics & Text | Print | Product List | Glossary On
Versions: 1 2 3 4 5 6 7 8 9 10 11 12 13 14 15 16 17 18 19 20 21 22 23 24 25 26 27 28 29 30 31 32 33 34 35 36 37 38 39 40 41 42 43 44 45 46 47 48 49 50
000
ASUS43 KOAX 242010
RWRNE

WEATHER ROUNDUP FOR NEBRASKA
NATIONAL WEATHER SERVICE OMAHA NE
200 PM CST FRI NOV 24 2017

NOTES: SATELLITE DATA IS BEING USED TO AUGMENT CLOUD COVER ABOVE
       12000 FEET.
       "FAIR" INDICATES FEW OR NO CLOUDS BELOW 12,000 FEET WITH NO
       SIGNIFICANT WEATHER AND/OR OBSTRUCTIONS TO VISIBILITY.


NEZ001>004-019>022-054>056-242100-
NEBRASKA PANHANDLE

CITY           SKY/WX    TMP DP  RH WIND       PRES   REMARKS
SCOTTSBLUFF    SUNNY     60  28  29 NW18G31   29.88S
ALLIANCE       PTSUNNY   58  24  27 NW22G30   29.86R
CHADRON        CLOUDY    56  32  40 NW15G24   29.86R
GORDON         FAIR      53  26  35 N23       29.85R
KIMBALL        SUNNY     57  34  42 N16G25    29.90S
SIDNEY         SUNNY     59  35  40 N24G32    29.88S
$$

NEZ057>060-069>072-079>082-242100-
SOUTHWEST NEBRASKA

CITY           SKY/WX    TMP DP  RH WIND       PRES   REMARKS
NORTH PLATTE   SUNNY     67  37  33 N17       29.77F
IMPERIAL       SUNNY     70  34  26 N20G31    29.79R
LEXINGTON      SUNNY     68  37  31 N18G25    29.73F
MCCOOK         CLOUDY    67  37  33 N23G32    29.75R
OGALLALA       SUNNY     65  36  34 N3G17     29.82S
$$

NEZ005>010-023>029-035>040-094-242100-
NORTH CENTRAL NEBRASKA

CITY           SKY/WX    TMP DP  RH WIND       PRES   REMARKS
VALENTINE      PTSUNNY   58  35  42 N24G32    29.78R
AINSWORTH      CLOUDY    59  36  41 NW26G40   29.77R
BROKEN BOW     SUNNY     67  36  31 N26G32    29.73R
O`NEILL        SUNNY     62  36  37 NW25G43   29.70R
ORD            SUNNY     67  36  31 N24G33    29.69R
THEDFORD       SUNNY     62  38  41 NW24G33   29.79R
$$

NEZ041-046>049-061>064-073>077-083>087-242100-
SOUTH CENTRAL NEBRASKA

CITY           SKY/WX    TMP DP  RH WIND       PRES   REMARKS
GRAND ISLAND   SUNNY     68  42  38 N23G30    29.69R
AURORA         SUNNY     68  39  35 N23G31    29.68R
HASTINGS       SUNNY     68  38  33 N26G37    29.70R
HEBRON         SUNNY     73  36  25 N21G40    29.63R
HOLDREGE       CLOUDY    67  40  38 N24G31    29.73R
KEARNEY        SUNNY     68  39  34 N24       29.71S
YORK           CLOUDY    66  41  39 N28G39    29.65R
$$

NEZ011>018-030>034-042>045-242100-
NORTHEAST NEBRASKA

CITY           SKY/WX    TMP DP  RH WIND       PRES   REMARKS
NORFOLK        SUNNY     67  37  33 NW26G37   29.60R
ALBION         SUNNY     68  38  33 NW23G33   29.65R
BLAIR          SUNNY     66  41  39 N21G41    29.58R
COLUMBUS       CLOUDY    68  40  35 N18G26    29.63R
FREMONT        SUNNY     67  38  35 NW21G31   29.62R
TEKAMAH        SUNNY     68  37  32 N37G46    29.58R
WAYNE          SUNNY     67  31  26 N26G36    29.59S
$$

NEZ050>053-065>068-078-088>093-242100-
SOUTHEAST NEBRASKA

CITY           SKY/WX    TMP DP  RH WIND       PRES   REMARKS
LINCOLN        SUNNY     69  40  34 N32G43    29.62R
OMAHA EPPLEY   MOSUNNY   67  41  38 N30G41    29.56R
BEATRICE       SUNNY     76  41  28 N35G46    29.59R
FALLS CITY     CLOUDY    74  40  29 W15       29.53R
NEBRASKA CITY  CLOUDY    72  42  33 N22G38    29.55R
PLATTSMOUTH    SUNNY     69  40  34 NW30G40   29.56R
$$

NEZ044-045-051>053-067-242100-
OMAHA AREA

CITY           SKY/WX    TMP DP  RH WIND       PRES   REMARKS
OMAHA EPPLEY   MOSUNNY   67  41  38 N30G41    29.56R
BLAIR          SUNNY     66  41  39 N21G41    29.58R
FREMONT        SUNNY     67  38  35 NW21G31   29.62R
MILLARD        SUNNY     69  42  37 N21G32    29.58R
OFFUTT AFB     SUNNY     69  40  34 N30G45    29.57R
PLATTSMOUTH    SUNNY     69  40  34 NW30G40   29.56R
WAHOO          FAIR      68  38  32 N29G40    29.59R
$$



USA.gov is the U.S. government's official web portal to all federal, state and local government web resources and services.